sat.trackr.live / text

‹ back to catalog

STARLINK-34472

NORAD 64434 · 2025-129Y

PAYLOAD ACTIVE UNKNOWN

§ Identity

Operator
Country
US
Launch date
2025-06-17
Launch site
AFWTR
Launch vehicle
Mass (kg)
RCS (m²)

Purposes: comms

External: N2YO · Heavens-Above · Gunter

§ Orbital elements

Epoch: 2026-09-20T11:39:32.471136Z

Period
94.14 min
Inclination
70.0017°
Eccentricity
0.0003146
Mean motion
15.29581217 rev/d
Perigee alt
474.9 km
Apogee alt
479.2 km
Semi-major
6,855.2 km
B*
3.9195e-4
RAAN
301.0042°
Arg perigee
259.6343°
Mean anomaly
100.4478°
Rev number
7,052

§ Raw data

STARLINK-344721 64434U 25129Y   26263.48579249  .00011156  00000+0  39195-3 0  99902 64434  70.0017 301.0042 0003146 259.6343 100.4478 15.29581217 70523

JSON: /api/v1/satellites/64434 · /tle

For live sub-satellite position, see the globe view (requires WebGL).

§ Visibility from observer

Set your observer location to see the next 7 days of passes ≥ 10°. The values pass through the URL so the page stays shareable.

No JS? Fill the form by hand. The geolocation button needs JavaScript.